Flag for Canada Weather past 2 weeks in Delta, British Columbia, Canada

Now
59 °F

Mostly cloudy.


Feels Like: 58 °F
Forecast: 54 / 67 °F
Wind: 7 mph from East

Location: Vancouver International Air-Port

Current Time: Sep 19, 2014 at 5:55:47 AM

Latest Report: Sep 19, 2014 at 5:00 AM


Visibility: 15 mi

Pressure: 29.98 "Hg

Humidity: 94%

Dew point: 57 °F

Location of DeltaLocation

Historic Weather in Delta — Graph

°F

Delta temperature yesterday

Maximum temperature yesterday: 63 °F (at 11:00 AM)
Minimum temperature yesterday: 59 °F (at 2:00 AM)
Average temperature yesterday: 61 °F

Past Weeks' High & Low Weather Summary

 TemperatureHumidityPressure
High75 °F (Sep 6, 3:00 PM)100% (Sep 4, 5:00 AM)30.35 "Hg (Sep 4, 5:00 AM)
Low46 °F (Sep 11, 5:00 AM)34% (Sep 11, 10:00 AM)29.71 "Hg (Sep 17, 6:00 PM)
Average62 °F78%29.97 "Hg
* Reported Sep 4 4:00 AM — Sep 19 4:00 AM, Delta, Weather by CustomWeather, © 2014

Note: Actual official high and low records may vary slightly from our data, if they occured in-between our weather recording intervals... More about our weather records

Advertising

Delta weather history for previous 24 hours

 ConditionsComfort  
Time TempWeatherWind HumidityBarometerVisibility
4:00 AM
Sep 19
59 °FMostly cloudy.9 mph94%29.97 "Hg15 mi
3:00 AM59 °FLight rain. Overcast.9 mph94%29.96 "Hg12 mi
2:00 AM59 °FMostly cloudy.9 mph94%29.95 "Hg15 mi
1:00 AM59 °FMostly cloudy.10 mph94%29.94 "Hg15 mi
12:00 AM59 °FMostly cloudy.8 mph94%29.93 "Hg15 mi
11:00 PM
Sep 18
61 °FMostly cloudy.7 mph94%29.93 "Hg15 mi
10:00 PM61 °FOvercast.6 mph94%29.91 "Hg15 mi
9:51 PM61 °FMostly cloudy.6 mph88%29.91 "Hg15 mi
9:00 PM61 °FMostly cloudy.7 mph88%29.90 "Hg15 mi
8:00 PM61 °FMore clouds than sun.7 mph94%29.86 "Hg15 mi
7:00 PM63 °FCloudy.6 mph88%29.85 "Hg15 mi
6:00 PM63 °FMostly cloudy.8 mph88%29.85 "Hg15 mi
5:00 PM63 °FCloudy.9 mph88%29.84 "Hg15 mi
4:00 PM61 °FMore clouds than sun.9 mph94%29.83 "Hg15 mi
3:00 PM63 °FLight rain. Mostly cloudy.8 mph88%29.82 "Hg12 mi
2:00 PM63 °FLow clouds.9 mph88%29.82 "Hg15 mi
1:53 PM63 °FMore clouds than sun.7 mph88%29.82 "Hg15 mi
1:00 PM63 °FLight rain. Mostly cloudy.9 mph88%29.81 "Hg12 mi
12:53 PM63 °FLight rain. Mostly cloudy.9 mph88%29.81 "Hg10 mi
12:00 PM63 °FMostly cloudy.5 mph88%29.79 "Hg15 mi
11:45 AM63 °FMostly cloudy.6 mph88%29.79 "Hg15 mi
11:00 AM63 °FMore clouds than sun.7 mph88%29.78 "Hg15 mi
10:00 AM61 °FCloudy.6 mph94%29.78 "Hg15 mi
9:00 AM61 °FMostly cloudy.8 mph94%29.75 "Hg15 mi
8:49 AM61 °FMostly cloudy.9 mph94%29.75 "Hg15 mi
8:00 AM59 °FCloudy.7 mph94%29.74 "Hg12 mi
7:00 AM59 °FMostly cloudy.9 mph100%29.73 "Hg10 mi
6:00 AM59 °FMostly cloudy.5 mph100%29.72 "Hg8 mi
5:49 AM59 °FMostly cloudy.5 mph94%29.72 "Hg8 mi
5:00 AM59 °FMostly cloudy.9 mph100%29.72 "Hg8 mi
Weather by CustomWeather, © 2014

See weather overviewHow to use our weather pages